| time (UTC) | temp C | wind direction | speed KPH | gust KPH | rain 1hr cm | rain 24hr cm | rain mn cm | humidity % | barometer mb |
| 20260507161434 | 28 | 121 | 1.6 | 8.0 | 0.00 | 0.00 | 0.00 | 16 | 1011.2 |
| 20260507160401 | 27 | 125 | 1.6 | 8.0 | 0.00 | 0.00 | 0.00 | 16 | 1011.4 |
| 20260507154251 | 27 | 336 | 0.0 | 6.4 | 0.00 | 0.00 | 0.00 | 19 | 1011.5 |
| 20260507153245 | 26 | 336 | 3.2 | 8.0 | 0.00 | 0.00 | 0.00 | 19 | 1011.5 |
| 20260507152238 | 26 | 335 | 4.8 | 9.7 | 0.00 | 0.00 | 0.00 | 19 | 1011.4 |
| 20260507150141 | 25 | 338 | 4.8 | 11.3 | 0.00 | 0.00 | 0.00 | 22 | 1011.4 |
| 20260507145152 | 24 | 324 | 4.8 | 11.3 | 0.00 | 0.00 | 0.00 | 23 | 1011.4 |
| 20260507144131 | 23 | 339 | 4.8 | 12.9 | 0.00 | 0.00 | 0.00 | 23 | 1011.5 |
| 20260507143139 | 23 | 334 | 6.4 | 12.9 | 0.00 | 0.00 | 0.00 | 25 | 1011.6 |
| 20260507142152 | 22 | 340 | 4.8 | 12.9 | 0.00 | 0.00 | 0.00 | 26 | 1011.5 |
| 20260507133712 | 21 | 331 | 6.4 | 12.9 | 0.00 | 0.00 | 0.00 | 28 | 1011.3 |
| 20260507132652 | 21 | 334 | 6.4 | 12.9 | 0.00 | 0.00 | 0.00 | 29 | 1011.2 |
| 20260507130519 | 20 | 4 | 6.4 | 14.5 | 0.00 | 0.00 | 0.00 | 29 | 1011.1 |
| 20260507125450 | 20 | 10 | 8.0 | 14.5 | 0.00 | 0.00 | 0.00 | 29 | 1011.1 |
| 20260507124441 | 20 | 335 | 6.4 | 14.5 | 0.00 | 0.00 | 0.00 | 29 | 1011.1 |
| 20260507123436 | 20 | 326 | 6.4 | 12.9 | 0.00 | 0.00 | 0.00 | 29 | 1011.2 |
| 20260507122430 | 20 | 334 | 4.8 | 12.9 | 0.00 | 0.00 | 0.00 | 29 | 1011.1 |
| 20260507121455 | 20 | 336 | 4.8 | 16.1 | 0.00 | 0.00 | 0.00 | 29 | 1011.0 |
| 20260507120432 | 20 | 331 | 6.4 | 16.1 | 0.00 | 0.00 | 0.00 | 28 | 1010.9 |
| 20260507114323 | 20 | 351 | 6.4 | 12.9 | 0.00 | 0.00 | 0.00 | 28 | 1011.0 |
| 20260507113330 | 20 | 334 | 6.4 | 12.9 | 0.00 | 0.00 | 0.00 | 28 | 1010.9 |
| 20260507111141 | 20 | 336 | 6.4 | 11.3 | 0.00 | 0.00 | 0.00 | 28 | 1011.0 |
| 20260507105018 | 20 | 328 | 1.6 | 9.7 | 0.00 | 0.00 | 0.00 | 29 | 1011.2 |
| 20260507104019 | 20 | 324 | 3.2 | 9.7 | 0.00 | 0.00 | 0.00 | 29 | 1011.3 |
| 20260507102948 | 20 | 336 | 3.2 | 8.0 | 0.00 | 0.00 | 0.00 | 28 | 1011.3 |
| 20260507100917 | 20 | 324 | 1.6 | 3.2 | 0.00 | 0.00 | 0.00 | 29 | 1011.4 |
| 20260507093610 | 20 | 324 | 3.2 | 4.8 | 0.00 | 0.00 | 0.00 | 28 | 1011.6 |
| 20260507091521 | 21 | 325 | 1.6 | 6.4 | 0.00 | 0.00 | 0.00 | 29 | 1011.7 |
| 20260507090529 | 21 | 327 | 1.6 | 4.8 | 0.00 | 0.00 | 0.00 | 29 | 1011.8 |
| 20260507085522 | 21 | 332 | 0.0 | 3.2 | 0.00 | 0.00 | 0.00 | 29 | 1011.8 |
| 20260507084537 | 21 | 327 | 1.6 | 3.2 | 0.00 | 0.00 | 0.00 | 29 | 1011.9 |
| 20260507082325 | 21 | 332 | 0.0 | 4.8 | 0.00 | 0.00 | 0.00 | 28 | 1012.0 |
| 20260507080146 | 21 | 327 | 1.6 | 6.4 | 0.00 | 0.00 | 0.00 | 27 | 1012.2 |
| 20260507075152 | 21 | 328 | 3.2 | 6.4 | 0.00 | 0.00 | 0.00 | 27 | 1012.2 |
| 20260507074154 | 21 | 329 | 1.6 | 3.2 | 0.00 | 0.00 | 0.00 | 27 | 1012.2 |
| 20260507073143 | 21 | 329 | 1.6 | 6.4 | 0.00 | 0.00 | 0.00 | 27 | 1012.2 |
| 20260507072110 | 22 | 330 | 1.6 | 6.4 | 0.00 | 0.00 | 0.00 | 28 | 1012.1 |
| 20260507071058 | 21 | 322 | 0.0 | 4.8 | 0.00 | 0.00 | 0.00 | 29 | 1012.0 |
| 20260507070100 | 21 | 319 | 0.0 | 0.0 | 0.00 | 0.00 | 0.00 | 31 | 1012.1 |
| 20260507065118 | 21 | 319 | 0.0 | 0.0 | 0.00 | 0.00 | 0.00 | 31 | 1012.1 |
| 20260507061745 | 22 | 319 | 0.0 | 0.0 | 0.00 | 0.00 | 0.00 | 29 | 1011.9 |
| 20260507060751 | 22 | 319 | 0.0 | 0.0 | 0.00 | 0.00 | 0.00 | 29 | 1012.0 |
| 20260507055749 | 22 | 319 | 0.0 | 0.0 | 0.00 | 0.00 | 0.00 | 27 | 1011.9 |
| 20260507054813 | 22 | 319 | 0.0 | 0.0 | 0.00 | 0.00 | 0.00 | 27 | 1011.9 |
| 20260507053808 | 22 | 319 | 0.0 | 0.0 | 0.00 | 0.00 | 0.00 | 28 | 1011.9 |
| 20260507052740 | 22 | 319 | 0.0 | 0.0 | 0.00 | 0.00 | 0.00 | 30 | 1011.9 |
| 20260507051736 | 22 | 320 | 0.0 | 0.0 | 0.00 | 0.00 | 0.00 | 29 | 1011.9 |
| 20260507050738 | 22 | 319 | 0.0 | 0.0 | 0.00 | 0.00 | 0.00 | 27 | 1011.9 |
| 20260507043458 | 24 | 320 | 0.0 | 1.6 | 0.00 | 0.00 | 0.00 | 25 | 1011.7 |
| 20260507042442 | 24 | 323 | 0.0 | 0.0 | 0.00 | 0.00 | 0.00 | 24 | 1011.5 |
| 20260507041413 | 25 | 323 | 0.0 | 0.0 | 0.00 | 0.00 | 0.00 | 24 | 1011.4 |
| 20260507040436 | 25 | 323 | 0.0 | 1.6 | 0.00 | 0.00 | 0.00 | 22 | 1011.3 |
| 20260507035442 | 25 | 319 | 0.0 | 1.6 | 0.00 | 0.00 | 0.00 | 23 | 1011.2 |
| 20260507034458 | 25 | 322 | 0.0 | 0.0 | 0.00 | 0.00 | 0.00 | 22 | 1011.1 |
| 20260507033440 | 25 | 324 | 0.0 | 0.0 | 0.00 | 0.00 | 0.00 | 22 | 1011.0 |
| 20260507032425 | 25 | 324 | 0.0 | 0.0 | 0.00 | 0.00 | 0.00 | 22 | 1010.9 |
| 20260507021806 | 27 | 322 | 1.6 | 6.4 | 0.00 | 0.00 | 0.00 | 18 | 1010.1 |
| 20260507020814 | 27 | 322 | 0.0 | 3.2 | 0.00 | 0.00 | 0.00 | 18 | 1010.0 |
| 20260507015809 | 28 | 319 | 3.2 | 9.7 | 0.00 | 0.00 | 0.00 | 17 | 1009.9 |
| 20260507013652 | 28 | 333 | 4.8 | 9.7 | 0.00 | 0.00 | 0.00 | 16 | 1009.9 |
| 20260507012648 | 28 | 324 | 3.2 | 9.7 | 0.00 | 0.00 | 0.00 | 16 | 1009.9 |
| 20260507011705 | 29 | 319 | 1.6 | 6.4 | 0.00 | 0.00 | 0.00 | 16 | 1009.9 |
| 20260507010729 | 29 | 319 | 3.2 | 6.4 | 0.00 | 0.00 | 0.00 | 16 | 1009.9 |
| 20260507005740 | 29 | 320 | 1.6 | 8.0 | 0.00 | 0.00 | 0.00 | 16 | 1010.0 |
| 20260507004734 | 28 | 323 | 4.8 | 14.5 | 0.00 | 0.00 | 0.00 | 16 | 1009.9 |
| 20260507003741 | 29 | 331 | 3.2 | 14.5 | 0.00 | 0.00 | 0.00 | 16 | 1009.8 |
| 20260507002735 | 29 | 325 | 4.8 | 12.9 | 0.00 | 0.00 | 0.00 | 16 | 1009.8 |
| 20260507001730 | 29 | 321 | 1.6 | 12.9 | 0.00 | 0.00 | 0.00 | 17 | 1009.9 |
| 20260506235550 | 29 | 328 | 3.2 | 11.3 | 0.00 | 0.00 | 0.00 | 17 | 1009.9 |
| 20260506234522 | 29 | 330 | 3.2 | 14.5 | 0.00 | 0.00 | 0.00 | 17 | 1009.9 |
| 20260506231320 | 29 | 322 | 3.2 | 11.3 | 0.00 | 0.00 | 0.00 | 17 | 1010.1 |
| 20260506230256 | 29 | 317 | 1.6 | 11.3 | 0.00 | 0.00 | 0.00 | 16 | 1010.3 |
| 20260506225308 | 29 | 319 | 3.2 | 11.3 | 0.00 | 0.00 | 0.00 | 16 | 1010.4 |
| 20260506224318 | 28 | 317 | 3.2 | 12.9 | 0.00 | 0.00 | 0.00 | 17 | 1010.6 |
| 20260506223259 | 28 | 317 | 3.2 | 12.9 | 0.00 | 0.00 | 0.00 | 18 | 1010.6 |
| 20260506222309 | 28 | 317 | 3.2 | 9.7 | 0.00 | 0.00 | 0.00 | 18 | 1010.8 |
| 20260506220151 | 28 | 330 | 4.8 | 14.5 | 0.00 | 0.00 | 0.00 | 18 | 1011.1 |
| 20260506215154 | 27 | 316 | 4.8 | 12.9 | 0.00 | 0.00 | 0.00 | 18 | 1011.2 |
| 20260506214150 | 27 | 315 | 6.4 | 11.3 | 0.00 | 0.00 | 0.00 | 19 | 1011.4 |
| 20260506213126 | 27 | 316 | 4.8 | 11.3 | 0.00 | 0.00 | 0.00 | 19 | 1011.6 |
| 20260506212128 | 27 | 317 | 3.2 | 9.7 | 0.00 | 0.00 | 0.00 | 18 | 1011.7 |
| 20260506211146 | 28 | 319 | 1.6 | 11.3 | 0.00 | 0.00 | 0.00 | 19 | 1011.9 |
| 20260506210131 | 27 | 318 | 3.2 | 12.9 | 0.00 | 0.00 | 0.00 | 19 | 1012.1 |
| 20260506205155 | 28 | 319 | 1.6 | 16.1 | 0.00 | 0.00 | 0.00 | 19 | 1012.2 |
| 20260506204123 | 27 | 327 | 4.8 | 16.1 | 0.00 | 0.00 | 0.00 | 19 | 1012.4 |
| 20260506201923 | 27 | 315 | 3.2 | 16.1 | 0.00 | 0.00 | 0.00 | 20 | 1012.6 |
| 20260506200917 | 26 | 318 | 6.4 | 17.7 | 0.00 | 0.00 | 0.00 | 20 | 1012.7 |
| 20260506195910 | 26 | 341 | 8.0 | 17.7 | 0.00 | 0.00 | 0.00 | 21 | 1012.8 |
| 20260506194844 | 26 | 315 | 3.2 | 16.1 | 0.00 | 0.00 | 0.00 | 21 | 1012.9 |
| 20260506193850 | 26 | 338 | 4.8 | 14.5 | 0.00 | 0.00 | 0.00 | 21 | 1013.0 |
| 20260506191759 | 26 | 126 | 3.2 | 9.7 | 0.00 | 0.00 | 0.00 | 21 | 1013.3 |
| 20260506190824 | 26 | 316 | 1.6 | 11.3 | 0.00 | 0.00 | 0.00 | 22 | 1013.3 |
| 20260506185809 | 26 | 336 | 3.2 | 11.3 | 0.00 | 0.00 | 0.00 | 21 | 1013.5 |
| 20260506183603 | 25 | 318 | 1.6 | 17.7 | 0.00 | 0.00 | 0.00 | 23 | 1013.8 |
| 20260506182617 | 25 | 316 | 4.8 | 17.7 | 0.00 | 0.00 | 0.00 | 24 | 1013.9 |
| 20260506181612 | 25 | 332 | 3.2 | 12.9 | 0.00 | 0.00 | 0.00 | 26 | 1014.1 |
| 20260506180630 | 24 | 316 | 3.2 | 11.3 | 0.00 | 0.00 | 0.00 | 27 | 1014.2 |
| 20260506175629 | 24 | 345 | 1.6 | 11.3 | 0.00 | 0.00 | 0.00 | 26 | 1014.2 |
| 20260506174628 | 24 | 320 | 3.2 | 11.3 | 0.00 | 0.00 | 0.00 | 28 | 1014.3 |
| 20260506173648 | 24 | 326 | 1.6 | 8.0 | 0.00 | 0.00 | 0.00 | 27 | 1014.3 |
| 20260506172654 | 23 | 327 | 3.2 | 11.3 | 0.00 | 0.00 | 0.00 | 28 | 1014.3 |
| 20260506171624 | 23 | 319 | 3.2 | 11.3 | 0.00 | 0.00 | 0.00 | 27 | 1014.4 |
| 20260506170640 | 23 | 318 | 1.6 | 6.4 | 0.00 | 0.00 | 0.00 | 27 | 1014.3 |
| 20260506165644 | 23 | 320 | 1.6 | 6.4 | 0.00 | 0.00 | 0.00 | 29 | 1014.3 |
| 20260506164644 | 22 | 319 | 1.6 | 8.0 | 0.00 | 0.00 | 0.00 | 29 | 1014.3 |
| 20260506163657 | 22 | 317 | 1.6 | 8.0 | 0.00 | 0.00 | 0.00 | 29 | 1014.2 |
| 20260506162708 | 22 | 329 | 0.0 | 6.4 | 0.00 | 0.00 | 0.00 | 28 | 1014.3 |